Regional Weather Roundup
Issued by NWS

Home | Current Version | Previous Version | Graphics & Text | Print | Product List | Glossary On
Versions: 1 2 3 4 5 6 7 8 9 10 11 12 13 14 15 16 17 18 19 20 21 22 23 24 25 26 27 28 29 30 31 32 33 34 35 36 37 38 39 40 41 42 43 44 45 46 47 48 49 50
000
ASUS43 KMKX 041700
RWRWI

WISCONSIN REGIONAL WEATHER ROUNDUP
NATIONAL WEATHER SERVICE MILWAUKEE/SULLIVAN WI
1200 PM CDT MON MAY 04 2015

NOTE: "FAIR" INDICATES FEW OR NO CLOUDS BELOW 12,000 FEET WITH NO
SIGNIFICANT WEATHER AND/OR OBSTRUCTIONS TO VISIBILITY.

WIZ001-002-006>008-014>016-023>028-041800-
NORTHWEST WISCONSIN

CITY           SKY/WX    TMP DP  RH WIND       PRES   REMARKS
SUPERIOR ARPT  MOSUNNY   64  31  29 N9        30.19S
ASHLAND        MOSUNNY   64  35  34 NE8       30.19R
HAYWARD        SUNNY     62  28  27 N10       30.20R
SIREN          MOSUNNY   64  29  27 N9G21     30.19R
CUMBERLAND     MOSUNNY   61  28  29 N13G22    30.19R
RICE LAKE      MOSUNNY   64  24  21 N12G17    30.20R
CHETEK         MOSUNNY   63  33  33 N8G18     30.18R
LADYSMITH      MOSUNNY   62  32  31 NW10      30.18R
EAU CLAIRE     NOT AVBL
MENOMONIE      SUNNY     63  32  31 N12G20    30.18R
NEW RICHMOND   MOSUNNY   65  26  22 N15G21    30.19R
OSCEOLA        MOSUNNY   64  32  29 N14G23    30.21S
$$

WIZ003>005-009-010-017-018-041800-
NORTH CENTRAL WISCONSIN

CITY           SKY/WX    TMP DP  RH WIND       PRES   REMARKS
MANITOWISH WTR SUNNY     58  34  40 N10       30.16R
ARBOR VITAE    SUNNY     60  32  34 N13       30.15R
WOODRUFF       SUNNY     60  32  34 N13       30.15R
RHINELANDER    SUNNY     61  31  32 N9        30.17R
EAGLE RIVER    SUNNY     60  29  31 N16       30.14R
LAND O LAKES   SUNNY     59  33  38 N9        30.15S
PHILLIPS       MOSUNNY   59  33  37 NW9G18    30.16R
TOMAHAWK       SUNNY     61  33  34 CALM      30.16R
MEDFORD        SUNNY     62  38  41 N13       30.16R
MERRILL        SUNNY     63  34  33 N9G18     30.14R
$$

WIZ029-030-035-036-043>047-041800-
CENTRAL WISCONSIN

CITY           SKY/WX    TMP DP  RH WIND       PRES   REMARKS
WAUSAU         SUNNY     65  37  35 NW9       30.13R
MOSINEE        NOT AVBL
MARSHFIELD     SUNNY     66  39  37 NW14      30.15R
STEVENS POINT  SUNNY     65  34  31 NW8       30.14R
WAUPACA        SUNNY     69  41  36 N6        30.12R
WAUTOMA        NOT AVBL
WISC RAPIDS    SUNNY     68  32  26 VRB7G17   30.15R
CAMP DOUGLAS   NOT AVBL
$$

WIZ011>013-019>022-031-037>040-048>050-041800-
NORTHEAST WISCONSIN

CITY           SKY/WX    TMP DP  RH WIND       PRES   REMARKS
ANTIGO         SUNNY     61  40  46 N12       30.14R
SHAWANO        SUNNY     70  37  29 NE5       30.11R
OCONTO         MOSUNNY   68  40  35 N10       30.09S
STURGEON BAY   SUNNY     64  39  39 N9        30.13R
GREEN BAY      SUNNY     70  42  36 E12       30.10R
MANITOWOC      NOT AVBL
APPLETON       SUNNY     66  39  37 N12       30.11R
CLINTONVILLE   SUNNY     68  39  34 NE8       30.11R
OSHKOSH        SUNNY     68  44  42 E9        30.11R
$$

WIZ032>034-041-042-053>061-041800-
SOUTHWEST WISCONSIN

CITY           SKY/WX    TMP DP  RH WIND       PRES   REMARKS
LA CROSSE      MOSUNNY   70  36  28 N10       30.14R
SPARTA         SUNNY     68  34  28 NE8       30.15R
VIROQUA        MOSUNNY   65  46  50 N14       30.15R
BOSCOBEL       PTSUNNY   73  52  47 VRB5      30.12R
PRAIRIE DU CHI PTSUNNY   66  53  63 NE6       30.12R
PLATTEVILLE    PTSUNNY   67  58  72 N6        30.12R
$$

WIZ056-057-062-063-064-067-068-041800-
SOUTH CENTRAL WISCONSIN

CITY           SKY/WX    TMP DP  RH WIND       PRES   REMARKS
REEDSBURG      MOSUNNY   66  51  59 NE6       30.12R
BARABOO/DELLS  NOT AVBL
LONE ROCK      NOT AVBL
MINERAL POINT  CLOUDY    66  55  68 N5        30.13R
MADISON        PTSUNNY   69  55  60 N9        30.11R
MIDDLETON      MOSUNNY   69  56  63 NE6       30.12R
WATERTOWN      CLOUDY    65  58  79 N3        30.11R
MONROE         PTSUNNY   66  59  77 NE6       30.11S
JANESVILLE     CLOUDY    68  57  68 NW5       30.11R
$$

WIZ051-052-058>065-066-070>072-041800-
SOUTHEAST WISCONSIN

CITY           SKY/WX    TMP DP  RH WIND       PRES   REMARKS
MILWAUKEE      CLOUDY    67  57  70 E8        30.10R
WAUKESHA       PTSUNNY   66  55  68 NE7       30.12R
MILWAUKEE/TIMM CLOUDY    68  54  60 NW3       30.11R
RACINE         CLOUDY    66  56  70 E9        30.12R
BURLINGTON     PTSUNNY   65  56  73 W5        30.11R
KENOSHA        CLOUDY    70  59  68 W8        30.10R
FOND DU LAC    MOSUNNY   68  48  48 N13       30.11R
SHEBOYGAN      MOSUNNY   67  44  43 NE14      30.12R
WEST BEND      CLOUDY    64  54  68 NW6       30.10S
JUNEAU         CLOUDY    64  56  75 N3        30.12R
$$

LSZ147-162-041800-
LAKE SUPERIOR

STATION/POSITION TIME  TEMP    WIND        PRES    WAVE
                       AIR SEA DIR/SP/G            HT/PER
                 (UTC) (F)     (DEG/KT/KT) (MB)    (FT/S)
W MID LAKE BUOY  1550   39 35  240/  8/ 10 1022.2R   1
DEVILS ISLAND    1600   47     240/  8/ 11 1022.5R
PORT WING        1640   55     280/  6/  7 1022.7R
SAXON HARBOR     1600   55        CALM     1022.0R
$$

LMZ867-665-643>646-041800-
LAKE MICHIGAN

STATION/POSITION TIME  TEMP    WIND        PRES    WAVE
                       AIR SEA DIR/SP/G            HT/PER
                 (UTC) (F)     (DEG/KT/KT) (MB)    (FT/S)
CHAMBERS ISLAND  1600   56      30/  7/  8 1019.0R
NORTHPORT PIER   1600   51     320/  8/ 11 1019.0R
SISTER BAY       1602   61      10/ 15/ 18   N/A
KEWAUNEE LAKESHO 1600   59      30/  7/  9 1017.8
SHEBOYGAN LAKESH 1600   56      20/ 13/ 14 1019.1R
PORT WASHINGTON  1600   66      50/  3/  7 1019.3R
ATWATER BUOY     1600   52     100/  2/  2 1020.4R
MILWAUKEE LAKESH 1600   52      60/  7/  8   N/A
KENOSHA   LAKESH 1600   66     270/  6/  9 1018.6R
$$

TC  - TEMPERATURE IN CELSIUS
VSB - VISIBILITY IN STATUTE MILES
WCI - WIND CHILL INDEX
HX  - HEAT INDEX




USA.gov is the U.S. government's official web portal to all federal, state and local government web resources and services.